Current Weather Conditions by Major Hwy


I-84 West to East [Columbia River Gorge] 300 AM PDT TUE JUN 27 2017 ELEVA CITY SKY/WX TMP DP RH WIND PRES REMARKS 10 ASTORIA, OR CLOUDY 57 48 72 CALM 30.05S 20 KELSO CLOUDY 57 49 74 VRB5 30.06S 40 PORTLAND, OR CLOUDY 57 48 72 NW8 30.06R 30 TROUTDALE, OR CLOUDY 59 50 72 VRB5 30.05R 240 THE DALLES, OR PTCLDY 66 51 58 NW8G20 29.90R 620 HERMISTON, OR PTCLDY 68 52 56 SW14G26 29.83R 1,480 PENDLETON, OR PTCLDY 61 52 72 NW5 29.89R 2,710 LA GRANDE PTCLDY 57 48 72 W7 29.91R 3,370 BAKER CITY MOCLDY 60 50 69 SE6 29.93R 2,190 ONTARIO CLOUDY 68 51 54 N13 29.84F
I-90 West to East 300 AM PDT TUE JUN 27 2017 ELEVA CITY SKY/WX TMP DP RH WIND PRES REMARKS 30 SEATAC AIRPORT MOCLDY 53 49 86 S7 30.03S 1,730 ELLENSBURG CLOUDY 63 46 54 NW18G28 29.87R 1,200 MOSES LAKE MOCLDY 69 42 37 N5 29.79R 1,880 SPOKANE GEIGER PTCLDY 63 55 75 SW17 29.80R
I-82 North West to South East 300 AM PDT TUE JUN 27 2017 ELEVA CITY SKY/WX TMP DP RH WIND PRES REMARKS 1,730 ELLENSBURG CLOUDY 63 46 54 NW18G28 29.87R 1,050 YAKIMA TC NOT AVBL 720 360 PASCO CLOUDY 68 56 65 SW10 29.81R 620 HERMISTON, OR PTCLDY 68 52 56 SW14G26 29.83R
Hwy97 North to South 300 AM PDT TUE JUN 27 2017 ELEVA CITY SKY/WX TMP DP RH WIND PRES REMARKS 850 OMAK CLOUDY 69 31 24 N13 29.79R 630 WENATCHEE MOCLDY 68 38 33 W17 29.81S 1,730 ELLENSBURG CLOUDY 63 46 54 NW18G28 29.87R 1,050 YAKIMA TC NOT AVBL 1,640 GOLDENDALE* PTCLDY 66 51 58 NW8G20 29.90R *From Dallesport Airport Elev 240 3,080 REDMOND PTCLDY 52 44 74 CALM 29.98R 4,100 KLAMATH FALLS CLEAR 54 52 93 NE5 30.04F
I-5 North to South 300 AM PDT TUE JUN 27 2017 ELEVA CITY SKY/WX TMP DP RH WIND PRES REMARKS 150 BELLINGHAM CLEAR 57 50 77 S12G22 29.98R 100 ARLINGTON CLOUDY 54 50 86 CALM 30.02R 610 EVERETT MOCLDY 54 51 90 S8 30.02S 30 SEATAC AIRPORT MOCLDY 53 49 86 S7 30.03S 200 OLYMPIA CLEAR 52 48 86 SW6 30.04R 20 KELSO CLOUDY 57 49 74 VRB5 30.06S 100 VANCOUVER CLOUDY 58 50 75 N7 30.05R 40 PORTLAND CLOUDY 57 48 72 NW8 30.06R 200 SALEM CLOUDY 58 53 84 NW3 30.04R 360 EUGENE CLOUDY 57 55 93 S6 30.05S 510 ROSEBURG CLOUDY 59 54 83 N7 30.05S 1,300 MEDFORD CLEAR 63 55 75 NW5 29.99S
Data from:
http://www.wrh.noaa.gov/sew/get.php?pil=RWR&sid=OR&version=0&format=printer
http://www.wrh.noaa.gov/sew/get.php?pil=RWR&sid=WA&version=0&format=printer

Current Observations

Washington State Current Weather Observations   …  Oregon State Current Weather Observation



48 Hour Forecast

Seattle  …  Vancouver  …  Portland
————————————————————————————————————————
Bend  …  Spokane  …  Richland  …  Pendleton  …  Blue Mountains I-84  …  Yakima
————————————————————————————————————————
Goldendale, Washington Higher Elevations  …  Dallesport Airport - Goldendale  …  Bingen - White Salmon - Hood River  …  Index


Top of Page